ARIANE 5 DEB (SYLDA), 41947

Orbit data source: Space-Track

ARIANE 5 DEB (SYLDA), 41947 is space debris in HEO originally from a launch on Tue, 14 Feb 2017 UTC launched from the French Guiana (FRGUI). Debris objects in space refer to the collection of defunct objects orbiting the Earth. Examples of debris include non-operational satellites, rocket bodies, and fragments generated from explosions, collisions, or faulty payload assembly.

Loading next visibility...
Identifier
41947, 2017-007D
Orbit
HEO
Country
Flag of FRFR
Related business
Manufacturer
ADS/Bremen
Mission
Spacecraft
Bus & Motor
SYLDA 5, Unknown motor
Mass
440 kg wet, 440 kg dry
Launch date (UTC)
2017-02-14 (9 years ago)
Launch vehicle
Unknown
Launch site
French Guiana (FRGUI)
Object type
Payload
Rocket body
Debris
Shape & HBR
Cyl, 2.8 m
Radar Cross Section
27.391 m², Large (>1 m²)

Expand to show TLE details & history
Last TLE update: 14 hours ago

TLE from 14 hours ago
0 ARIANE 5 DEB (SYLDA)
1 41947U 17007D   25243.35265556  .00154013  00000-0  81994-2 0  9990
2 41947   3.9155 186.8574 5136654  12.8974 356.3754  5.47003827 95384
Epoch: 2025-08-31T08:27Z
TLE epoch observation values (Epoch: 2025-08-31T08:27:49.44Z)
Latitude
0.00001°
Longitude
80.0963°
Altitude
294.774 km
Speed
9.496 km/s
True Right ascension
12h 27m 18s
True Declination
0° 00' 00"
Sunlit
Object was in daylight at epoch
Visualization orbit readout
Latitude
Unknown
Longitude
Unknown
Altitude
Unknown
Speed
Unknown
Apparent Right ascension
Unknown
Apparent Declination
Unknown
Sunlit
N/A
Visualization observer readout
Local Sidereal Time
14:12:38
Azimuth
Unknown
Elevation
Unknown
Doppler factor
Unknown
Orbital elements
Apogee altitude
14,225.04 km
Perigee altitude
241.581 km
Semi-major axis
13,611.447 km
Eccentricity
0.51367
Inclination
3.9155°
RAAN
186.8574°
Arg. of periapsis
12.8974°
True anomaly
346.92898°
Mean anomaly
356.3754°
Eccentric anomaly
352.56909°
Mean motion
1.36674 °/min
Orbital period
263.4 mins
BSTAR
0.0081994
Loading maneuver chart data...
Computing Atmospheric mass density...
Loading historical data...
Loading historical data...
Loading historical data...
Loading historical data...
Loading historical data...
Loading historical data...
Loading historical data...
Other satellites on launch #7 in the year 2017 (2017-02-14 UTC)

Documentation

Showing up to 5 results
|